Home > Weather > Senftenberg > Past weeks

Flag for Germany Past Weather in Senftenberg, Brandenburg, Germany — Yesterday and Last 2 Weeks

Now
84 °F

Sunny.


Feels Like: 83 °F
Forecast: 63 / 91 °F
Wind: 6 mph from Southeast

Location: Dresden-Klotzsche

Current Time: Aug 27, 2016 at 7:07:14 PM

Latest Report: Aug 27, 2016 at 6:20 PM


Visibility: 10 mi

Pressure: 30.07 "Hg

Humidity: 37%

Dew Point: 55 °F

Location of SenftenbergLocation

Past Weather in Senftenberg — Graph

°F

Senftenberg Temperature Yesterday

Maximum temperature yesterday: 86 °F (at 3:50 PM)
Minimum temperature yesterday: 66 °F (at 4:20 AM)
Average temperature yesterday: 75 °F

High & Low Weather Summary for the Past Weeks

 TemperatureHumidityPressure
High88 °F (Aug 27, 2:50 PM)100% (Aug 12, 6:50 PM)30.36 "Hg (Aug 12, 6:50 PM)
Low46 °F (Aug 18, 5:20 AM)30% (Aug 19, 3:50 PM)29.80 "Hg (Aug 18, 3:50 PM)
Average66 °F68%30.11 "Hg
* Reported Aug 12 5:20 PM — Aug 27 5:50 PM, Senftenberg, Weather by CustomWeather, © 2016

Note: Actual official high and low records may vary slightly from our data, if they occured in-between our weather recording intervals... More about our weather records

Advertising

Senftenberg Weather History for the Previous 24 Hours

Scroll right to see more
 ConditionsComfort  
Time TempWeatherWind HumidityBarometerVisibility
5:50 PM
Sat, Aug 27
86 °FSunny.7 mph33%30.07 "Hg10 mi
5:20 PM86 °FPassing clouds.7 mph33%30.09 "HgN/A
4:50 PM88 °FPassing clouds.7 mph31%30.09 "HgN/A
4:20 PM86 °FPassing clouds.8 mph33%30.09 "HgN/A
3:50 PM88 °FPassing clouds.9 mph33%30.09 "HgN/A
3:20 PM88 °FSunny.6 mph33%30.09 "Hg10 mi
2:50 PM88 °FPassing clouds.5 mph35%30.09 "HgN/A
2:20 PM86 °FPassing clouds.7 mph38%30.12 "HgN/A
1:50 PM86 °FPassing clouds.5 mph40%30.12 "HgN/A
1:20 PM86 °FSunny.5 mph38%30.12 "Hg10 mi
12:50 PM84 °FSunny.3 mph40%30.12 "Hg10 mi
12:20 PM82 °FSunny.2 mph40%30.12 "Hg10 mi
11:50 AM82 °FSunny.2 mph42%30.12 "Hg10 mi
11:20 AM81 °FPassing clouds.5 mph45%30.12 "HgN/A
10:50 AM79 °FSunny.3 mph51%30.12 "Hg10 mi
10:20 AM77 °FPassing clouds.5 mph54%30.12 "HgN/A
9:50 AM75 °FPassing clouds.5 mph54%30.12 "HgN/A
9:20 AM72 °FSunny.6 mph61%30.12 "Hg10 mi
8:50 AM70 °FSunny.6 mph64%30.12 "Hg10 mi
8:20 AM66 °FSunny.7 mph68%30.12 "Hg10 mi
7:50 AM64 °FPassing clouds.5 mph73%30.12 "HgN/A
7:20 AM64 °FSunny.7 mph73%30.12 "Hg10 mi
6:50 AM63 °FClear.8 mph73%30.09 "Hg10 mi
6:20 AM63 °FClear.6 mph73%30.09 "Hg10 mi
5:50 AM64 °FClear.8 mph68%30.09 "Hg10 mi
5:20 AM64 °FClear.8 mph68%30.09 "Hg10 mi
4:50 AM64 °FClear.7 mph68%30.09 "Hg10 mi
4:20 AM66 °FPassing clouds.6 mph64%30.09 "HgN/A
3:50 AM66 °FPassing clouds.7 mph64%30.09 "HgN/A
3:20 AM68 °FClear.7 mph60%30.09 "Hg10 mi
2:50 AM68 °FPassing clouds.8 mph60%30.09 "HgN/A
2:20 AM70 °FClear.8 mph57%30.09 "Hg10 mi
1:50 AM70 °FClear.9 mph57%30.09 "Hg10 mi
1:20 AM70 °FClear.9 mph57%30.09 "Hg10 mi
12:50 AM70 °FClear.10 mph57%30.09 "Hg10 mi
12:20 AM72 °FClear.10 mph53%30.09 "Hg10 mi
11:50 PM
Fri, Aug 26
72 °FClear.12 mph53%30.09 "Hg10 mi
11:20 PM73 °FClear.12 mph50%30.09 "Hg10 mi
10:50 PM72 °FClear.9 mph53%30.09 "Hg10 mi
10:20 PM72 °FClear.9 mph53%30.09 "Hg10 mi
9:50 PM73 °FClear.8 mph53%30.09 "Hg10 mi
9:20 PM75 °FClear.8 mph47%30.09 "Hg10 mi
8:50 PM75 °FSunny.7 mph50%30.09 "Hg10 mi
8:20 PM77 °FSunny.8 mph47%30.07 "Hg10 mi
7:50 PM79 °FSunny.8 mph42%30.07 "Hg10 mi
7:20 PM81 °FSunny.9 mph39%30.07 "Hg10 mi
Weather by CustomWeather, © 2016

See weather overviewHow to use our weather pages